Regional Weather Roundup
Issued by NWS

Home | Current Version | Previous Version | Text Only | Print | Product List | Glossary Off
Versions: 1 2 3 4 5 6 7 8 9 10 11 12 13 14 15 16 17 18 19 20 21 22 23 24 25 26 27 28 29 30 31 32 33 34 35 36 37 38 39 40 41 42 43 44 45 46 47 48 49 50

649
ASUS45 KTFX 191010
RWRMT
MONTANA REGIONAL WEATHER ROUNDUP
NATIONAL WEATHER SERVICE GREAT FALLS MT
300 AM MST SUN FEB 19 2017

NOTE: "FAIR" INDICATES FEW OR NO CLOUDS BELOW 12000 FEET WITH NO
SIGNIFICANT WEATHER AND/OR OBSTRUCTIONS TO VISIBILITY.

MTZ001>007-043-191100-
WEST OF THE DIVIDE

CITY           SKY/WX    TMP DP  RH WIND       PRES   REMARKS
KALISPELL      LGT RAIN  34  33  96 SE8       29.41S FOG     WCI  27
MISSOULA       CLOUDY    35  34  96 NW3       29.44R
BUTTE          CLOUDY    41  28  60 SW9       29.41S
MULLAN PASS    SNOW      26  26 100 VRB3      29.40R VSB 1/2
ANACONDA         N/A     41  30  65 S13       29.40S
DEER LODGE       N/A     43  30  61 CALM      29.42R
EUREKA           N/A     32  30  93 CALM      29.42S
HAMILTON         N/A     45  34  65 SE8       29.41R
LIBBY            N/A     32  32 100 CALM      29.42S VSB 1
RONAN            N/A     35  33  92 SE3       29.52S
$$

MTZ008-052>055-191100-
SOUTHWEST MONTANA

CITY           SKY/WX    TMP DP  RH WIND       PRES   REMARKS
BOZEMAN        CLOUDY    33  29  85 VRB3      29.42S
DILLON         CLOUDY    37  31  78 SW6       29.44R
W YELLOWSTONE  LGT SNOW  32  32 100 CALM      29.52F
ENNIS          CLOUDY    41  34  75 S22G31    29.49R
THREE FORKS      N/A     46 -22   5 S12       29.47F
$$

MTZ009-010-012-014-046-048-049-054-191100-
EAST SLOPES AND CENTRAL MONTANA

CITY           SKY/WX    TMP DP  RH WIND       PRES   REMARKS
CUT BANK       MOCLDY    30  29  96 SE5       29.32S
GREAT FALLS    CLOUDY    45  29  53 S13       29.34F
MALMSTROM AFB  CLOUDY    42  31  62 S13       29.35S
HELENA         CLOUDY    37  32  82 W6        29.39R
AUGUSTA          N/A     37  30  74 S14       29.32F WCI  29
BOWMANS CRNR     N/A     39  30  69 S21       29.32S WCI  29
CHOTEAU          N/A     37  30  75 W5        29.34F
CONRAD           N/A     27  27 100 CALM      29.41F
POWER            N/A     38  29  70 S10       29.33S WCI  32
RAYNESFORD       N/A     40  28  62 CALM      29.37S
ULM              N/A     43  31  61 MISG      29.34F
$$

MTZ011-013-016-021-045-047-050-051-191100-
NORTH CENTRAL MONTANA

CITY           SKY/WX    TMP DP  RH WIND       PRES   REMARKS
HAVRE          CLOUDY    32  30  92 E12       29.36F WCI  23
LEWISTOWN      CLOUDY    38  28  67 CALM      29.40F
N BAR RANCH      N/A     39  28  65 CALM      29.44F
CHINOOK          N/A     34  30  86 E18G25    29.39F WCI  23
DENTON         MOCLDY    41  31  67 SE15      29.35F
GEYSER         MOCLDY    44  29  55 S15       29.37F
GRASS RANGE    MOCLDY    36  29  76 W8        29.37F WCI  30
JUDITH GAP       N/A     36  28  75 SW12      29.42F WCI  27
ROY              N/A     37  31  78 MISG      29.38F
STANFORD         N/A     40  28  63 CALM      29.39S
WINIFRED         N/A     43  28  53 S3        29.38F
$$

MTZ017>020-022>027-061-062-191100-
NORTHEAST MONTANA

CITY           SKY/WX    TMP DP  RH WIND       PRES   REMARKS
GLASGOW        CLOUDY    33  30  88 E17       29.48F WCI  22
JORDAN           N/A     31  28  89 CALM      29.47S
SIDNEY         CLOUDY    30  28  92 NE8       29.58F WCI  22
WOLF POINT     PTCLDY    32  29  88 E15       29.56S WCI  22
PLENTYWOOD       N/A     30  28  93 E14       29.59F WCI  20
POPLAR           N/A     28  27  93 NE8       29.57S WCI  20
$$

MTZ028>42-056>058-191100-
SOUTHCENTRAL AND SOUTHEAST MONTANA

CITY           SKY/WX    TMP DP  RH WIND       PRES   REMARKS
BAKER          CLOUDY    31  28  89 E6        29.52F WCI  25
BILLINGS       CLOUDY    39  32  76 N3        29.44F
LIVINGSTON     CLOUDY    44  31  60 S7        29.42F
MILES CITY     CLOUDY    33  29  85 NE12      29.47F WCI  24
BIG TIMBER     CLOUDY    36  30  80 CALM      29.45F
FORSYTH          N/A     34  32  93 E3        29.46F
HARLOWTON        N/A     29  28  94 NW5       29.42F
LAUREL           N/A     38  24  57 CALM      29.48R
$$

REGIONAL REPORTS...DAKOTAS

CITY           SKY/WX    TMP DP  RH WIND       PRES   REMARKS
WILLISTON      CLOUDY    33  30  88 NE7       29.61F WCI  27
MINOT          CLOUDY    32  29  88 NE7       29.67F WCI  26
DICKINSON      FOG       29  29 100 NE5       29.55F VSB 1/4
BEACH            N/A    N/A N/A N/A MISG        N/A
CROSBY           N/A     30  30 100 E12       29.67S WCI  21
TIOGA            N/A     30  30 100 E15       29.63F WCI  19
WATFORD CITY   CLOUDY    32  32 100 SE6       29.60S WCI  26
BISMARCK       CLOUDY    35  33  92 E9        29.64S WCI  28
GRAND FORKS    PTCLDY    34  28  79 E7        29.82S WCI  28
FARGO          PTCLDY    35  33  92 E6        29.79F WCI  30
BUFFALO SD       N/A     41  33  73 SE8       29.47F
RAPID CITY     CLOUDY    41  30  65 E3        29.57F
$$

REGIONAL REPORTS...WYOMING/IDAHO/WASHINGTON

CITY           SKY/WX    TMP DP  RH WIND       PRES   REMARKS
GILLETTE       CLEAR     44  33  65 S16G29    29.53S
SHERIDAN       CLOUDY    33  28  81 SE7       29.47F WCI  27
BUFFALO WY     CLOUDY    45  27  49 SW14      29.50S
CODY           CLOUDY    36  27  69 S8        29.49F WCI  30
YELLOWSTONE LA   N/A     30  30 100 VRB3      29.58F
IDAHO FALLS    LGT RAIN  35  35 100 W16       29.56R WCI  25
SALMON         CLOUDY    36  34  93 SE13      29.44F WCI  27
BOISE          CLOUDY    42  39  89 E8        29.51S
SPOKANE        FOG       33  32  96 SE6       29.46S VSB 1/2 WCI  28
$$

REGIONAL REPORTS...ALBERTA

CITY           SKY/WX    TMP DP  RH WIND       PRES   REMARKS
EDMONTON       MIX PCPN  32  32 100 E12       29.39S WCI  23
CALGARY        CLOUDY    30  27  86 S5        29.30F FOG
LETHBRIDGE     FOG       32 N/A N/A SW6       29.32F VSB 3/8 WCI  26
MEDICINE HAT   CLEAR     36  32  87 VRB5      29.34F
WATERTON GATE    N/A     32  34 100 SW6         N/A  WCI  26
CARDSTON         N/A     28  27  93 SW2         N/A
MILK RIVER       N/A     34  30  86 SW5         N/A
$$

REGIONAL REPORTS...SASKATCHEWAN

CITY           SKY/WX    TMP DP  RH WIND       PRES   REMARKS
SWIFT CURRENT  LGT RAIN  34  30  86 SE16      29.49F WCI  23
REGINA         CLEAR     32  27  80 E16G23    29.67S WCI  21
SASKATOON      CLOUDY    34  28  80 E15       29.67F WCI  24
VAL MARIE        N/A     34  30  86 SE7         N/A  WCI  28
ROCKGLEN         N/A     30  28  93 SE15        N/A  WCI  19
ASSINIBOIA       N/A     34  32  93 E13G18      N/A  WCI  25
$$




USA.gov is the U.S. government's official web portal to all federal, state and local government web resources and services.